Year,Month,Day,Hour,Minute,Value (Times are PST for temperature in C)
2010,08,14,00,00,18.90
2010,08,14,00,01,18.90
2010,08,14,00,02,18.80
2010,08,14,00,03,18.80
2010,08,14,00,04,18.80
2010,08,14,00,05,18.80
2010,08,14,00,06,18.80
2010,08,14,00,07,18.80
2010,08,14,00,08,18.80
2010,08,14,00,09,18.80
2010,08,14,00,10,18.70
2010,08,14,00,11,18.70
2010,08,14,00,12,18.70
2010,08,14,00,13,18.70
2010,08,14,00,14,18.70
2010,08,14,00,15,18.70
2010,08,14,00,16,18.60
2010,08,14,00,17,18.60
2010,08,14,00,18,18.60
2010,08,14,00,19,18.60
2010,08,14,00,20,18.60
2010,08,14,00,21,18.60
2010,08,14,00,22,18.60
2010,08,14,00,23,18.70
2010,08,14,00,24,18.70
2010,08,14,00,25,18.70
2010,08,14,00,26,18.60
2010,08,14,00,27,18.60
2010,08,14,00,28,18.60
2010,08,14,00,29,18.60
2010,08,14,00,30,18.50
2010,08,14,00,31,18.50
2010,08,14,00,32,18.50
2010,08,14,00,33,18.40
2010,08,14,00,34,18.40
2010,08,14,00,35,18.40
2010,08,14,00,36,18.40
2010,08,14,00,37,18.40
2010,08,14,00,38,18.40
2010,08,14,00,39,18.30
2010,08,14,00,40,18.30
2010,08,14,00,41,18.30
2010,08,14,00,42,18.30
2010,08,14,00,43,18.20
2010,08,14,00,44,18.20
2010,08,14,00,45,18.20
2010,08,14,00,46,18.20
2010,08,14,00,47,18.20
2010,08,14,00,48,18.20
2010,08,14,00,49,18.20
2010,08,14,00,50,18.10
2010,08,14,00,51,18.10
2010,08,14,00,52,18.10
2010,08,14,00,53,18.10
2010,08,14,00,54,18.10
2010,08,14,00,55,18.00
2010,08,14,00,56,18.00
2010,08,14,00,57,17.90
2010,08,14,00,58,17.90
2010,08,14,00,59,17.90
2010,08,14,01,00,17.90
2010,08,14,01,01,17.80
2010,08,14,01,02,17.80
2010,08,14,01,03,17.80
2010,08,14,01,04,17.80
2010,08,14,01,05,17.80
2010,08,14,01,06,17.80
2010,08,14,01,07,17.70
2010,08,14,01,08,17.70
2010,08,14,01,09,17.70
2010,08,14,01,10,17.70
2010,08,14,01,11,17.70
2010,08,14,01,12,17.70
2010,08,14,01,13,17.60
2010,08,14,01,14,17.60
2010,08,14,01,15,17.60
2010,08,14,01,16,17.60
2010,08,14,01,17,17.60
2010,08,14,01,18,17.50
2010,08,14,01,19,17.50
2010,08,14,01,20,17.50
2010,08,14,01,21,17.50
2010,08,14,01,22,17.50
2010,08,14,01,23,17.40
2010,08,14,01,24,17.40
2010,08,14,01,25,17.40
2010,08,14,01,26,17.40
2010,08,14,01,27,17.40
2010,08,14,01,28,17.30
2010,08,14,01,29,17.30
2010,08,14,01,30,17.30
2010,08,14,01,31,17.30
2010,08,14,01,32,17.30
2010,08,14,01,33,17.30
2010,08,14,01,34,17.30
2010,08,14,01,35,17.20
2010,08,14,01,36,17.20
2010,08,14,01,37,17.20
2010,08,14,01,38,17.20
2010,08,14,01,39,17.20
2010,08,14,01,40,17.20
2010,08,14,01,41,17.20
2010,08,14,01,42,17.20
2010,08,14,01,43,17.10
2010,08,14,01,44,17.10
2010,08,14,01,45,17.10
2010,08,14,01,46,17.10
2010,08,14,01,47,17.10
2010,08,14,01,48,17.10
2010,08,14,01,49,17.00
2010,08,14,01,50,17.00
2010,08,14,01,51,17.00
2010,08,14,01,52,17.00
2010,08,14,01,53,17.00
2010,08,14,01,54,16.90
2010,08,14,01,55,16.90
2010,08,14,01,56,16.90
2010,08,14,01,57,16.90
2010,08,14,01,58,16.90
2010,08,14,01,59,16.90
2010,08,14,02,00,16.90
2010,08,14,02,01,16.90
2010,08,14,02,02,16.90
2010,08,14,02,03,16.90
2010,08,14,02,04,16.80
2010,08,14,02,05,16.80
2010,08,14,02,06,16.80
2010,08,14,02,07,16.80
2010,08,14,02,08,16.80
2010,08,14,02,09,16.80
2010,08,14,02,10,16.80
2010,08,14,02,11,16.80
2010,08,14,02,12,16.80
2010,08,14,02,13,16.80
2010,08,14,02,14,16.80
2010,08,14,02,15,16.80
2010,08,14,02,16,16.80
2010,08,14,02,17,16.80
2010,08,14,02,18,16.80
2010,08,14,02,19,16.90
2010,08,14,02,20,16.90
2010,08,14,02,21,16.90
2010,08,14,02,22,16.90
2010,08,14,02,23,17.00
2010,08,14,02,24,17.00
2010,08,14,02,25,17.10
2010,08,14,02,26,17.10
2010,08,14,02,27,17.10
2010,08,14,02,28,17.20
2010,08,14,02,29,17.20
2010,08,14,02,30,17.20
2010,08,14,02,31,17.20
2010,08,14,02,32,17.20
2010,08,14,02,33,17.20
2010,08,14,02,34,17.20
2010,08,14,02,35,17.10
2010,08,14,02,36,17.10
2010,08,14,02,37,17.10
2010,08,14,02,38,17.10
2010,08,14,02,39,17.10
2010,08,14,02,40,17.00
2010,08,14,02,41,17.00
2010,08,14,02,42,17.00
2010,08,14,02,43,16.90
2010,08,14,02,44,16.90
2010,08,14,02,45,16.90
2010,08,14,02,46,16.90
2010,08,14,02,47,16.90
2010,08,14,02,48,16.80
2010,08,14,02,49,16.80
2010,08,14,02,50,16.80
2010,08,14,02,51,16.80
2010,08,14,02,52,16.80
2010,08,14,02,53,16.70
2010,08,14,02,54,16.70
2010,08,14,02,55,16.70
2010,08,14,02,56,16.70
2010,08,14,02,57,16.70
2010,08,14,02,58,16.70
2010,08,14,02,59,16.60
2010,08,14,03,00,16.60
2010,08,14,03,01,16.60
2010,08,14,03,02,16.60
2010,08,14,03,03,16.50
2010,08,14,03,04,16.50
2010,08,14,03,05,16.50
2010,08,14,03,06,16.40
2010,08,14,03,07,16.40
2010,08,14,03,08,16.40
2010,08,14,03,09,16.40
2010,08,14,03,10,16.40
2010,08,14,03,11,16.30
2010,08,14,03,12,16.30
2010,08,14,03,13,16.30
2010,08,14,03,14,16.30
2010,08,14,03,15,16.30
2010,08,14,03,16,16.30
2010,08,14,03,17,16.30
2010,08,14,03,18,16.30
2010,08,14,03,19,16.30
2010,08,14,03,20,16.30
2010,08,14,03,21,16.30
2010,08,14,03,22,16.30
2010,08,14,03,23,16.30
2010,08,14,03,24,16.20
2010,08,14,03,25,16.20
2010,08,14,03,26,16.20
2010,08,14,03,27,16.20
2010,08,14,03,28,16.20
2010,08,14,03,29,16.20
2010,08,14,03,30,16.20
2010,08,14,03,31,16.20
2010,08,14,03,32,16.20
2010,08,14,03,33,16.20
2010,08,14,03,34,16.20
2010,08,14,03,35,16.20
2010,08,14,03,36,16.20
2010,08,14,03,37,16.20
2010,08,14,03,38,16.20
2010,08,14,03,39,16.20
2010,08,14,03,40,16.30
2010,08,14,03,41,16.30
2010,08,14,03,42,16.30
2010,08,14,03,43,16.30
2010,08,14,03,44,16.30
2010,08,14,03,45,16.30
2010,08,14,03,46,16.30
2010,08,14,03,47,16.30
2010,08,14,03,48,16.30
2010,08,14,03,49,16.30
2010,08,14,03,50,16.30
2010,08,14,03,51,16.30
2010,08,14,03,52,16.30
2010,08,14,03,53,16.30
2010,08,14,03,54,16.20
2010,08,14,03,55,16.20
2010,08,14,03,56,16.20
2010,08,14,03,57,16.20
2010,08,14,03,58,16.20
2010,08,14,03,59,16.20
2010,08,14,04,00,16.10
2010,08,14,04,01,16.10
2010,08,14,04,02,16.10
2010,08,14,04,03,16.10
2010,08,14,04,04,16.10
2010,08,14,04,05,16.00
2010,08,14,04,06,16.00
2010,08,14,04,07,16.00
2010,08,14,04,08,16.00
2010,08,14,04,09,15.90
2010,08,14,04,10,15.90
2010,08,14,04,11,15.90
2010,08,14,04,12,15.90
2010,08,14,04,13,15.90
2010,08,14,04,14,15.80
2010,08,14,04,15,15.80
2010,08,14,04,16,15.80
2010,08,14,04,17,15.80
2010,08,14,04,18,15.80
2010,08,14,04,19,15.80
2010,08,14,04,20,15.80
2010,08,14,04,21,15.80
2010,08,14,04,22,15.80
2010,08,14,04,23,15.80
2010,08,14,04,24,15.70
2010,08,14,04,25,15.70
2010,08,14,04,26,15.70
2010,08,14,04,27,15.80
2010,08,14,04,28,15.80
2010,08,14,04,29,15.80
2010,08,14,04,30,15.80
2010,08,14,04,31,15.80
2010,08,14,04,32,15.80
2010,08,14,04,33,15.80
2010,08,14,04,34,15.80
2010,08,14,04,35,15.80
2010,08,14,04,36,15.80
2010,08,14,04,37,15.80
2010,08,14,04,38,15.80
2010,08,14,04,39,15.80
2010,08,14,04,40,15.80
2010,08,14,04,41,15.80
2010,08,14,04,42,15.80
2010,08,14,04,43,15.80
2010,08,14,04,44,15.80
2010,08,14,04,45,15.80
2010,08,14,04,46,15.80
2010,08,14,04,47,15.80
2010,08,14,04,48,15.80
2010,08,14,04,49,15.80
2010,08,14,04,50,15.80
2010,08,14,04,51,15.80
2010,08,14,04,52,15.80
2010,08,14,04,53,15.80
2010,08,14,04,54,15.80
2010,08,14,04,55,15.80
2010,08,14,04,56,15.80
2010,08,14,04,57,15.80
2010,08,14,04,58,15.80
2010,08,14,04,59,15.80
2010,08,14,05,00,15.80
2010,08,14,05,01,15.80
2010,08,14,05,02,15.80
2010,08,14,05,03,15.80
2010,08,14,05,04,15.80
2010,08,14,05,05,15.80
2010,08,14,05,06,15.80
2010,08,14,05,07,15.80
2010,08,14,05,08,15.80
2010,08,14,05,09,15.80
2010,08,14,05,10,15.80
2010,08,14,05,11,15.80
2010,08,14,05,12,15.80
2010,08,14,05,13,15.80
2010,08,14,05,14,15.80
2010,08,14,05,15,15.80
2010,08,14,05,16,15.80
2010,08,14,05,17,15.80
2010,08,14,05,18,15.80
2010,08,14,05,19,15.80
2010,08,14,05,20,15.90
2010,08,14,05,21,15.90
2010,08,14,05,22,15.90
2010,08,14,05,23,15.90
2010,08,14,05,24,15.90
2010,08,14,05,25,15.90
2010,08,14,05,26,15.90
2010,08,14,05,27,15.90
2010,08,14,05,28,16.00
2010,08,14,05,29,16.00
2010,08,14,05,30,16.10
2010,08,14,05,31,16.20
2010,08,14,05,32,16.30
2010,08,14,05,33,16.30
2010,08,14,05,34,16.40
2010,08,14,05,35,16.50
2010,08,14,05,36,16.60
2010,08,14,05,37,16.70
2010,08,14,05,38,16.80
2010,08,14,05,39,16.90
2010,08,14,05,40,17.10
2010,08,14,05,41,17.20
2010,08,14,05,42,17.30
2010,08,14,05,43,17.30
2010,08,14,05,44,17.40
2010,08,14,05,45,17.40
2010,08,14,05,46,17.40
2010,08,14,05,47,17.30
2010,08,14,05,48,17.30
2010,08,14,05,49,17.30
2010,08,14,05,50,17.20
2010,08,14,05,51,17.20
2010,08,14,05,52,17.10
2010,08,14,05,53,17.00
2010,08,14,05,54,17.00
2010,08,14,05,55,16.90
2010,08,14,05,56,16.80
2010,08,14,05,57,16.80
2010,08,14,05,58,16.70
2010,08,14,05,59,16.70
2010,08,14,06,00,16.60
2010,08,14,06,01,16.60
2010,08,14,06,02,16.50
2010,08,14,06,03,16.40
2010,08,14,06,04,16.40
2010,08,14,06,05,16.30
2010,08,14,06,06,16.30
2010,08,14,06,07,16.30
2010,08,14,06,08,16.40
2010,08,14,06,09,16.50
2010,08,14,06,10,16.50
2010,08,14,06,11,16.60
2010,08,14,06,12,16.80
2010,08,14,06,13,16.90
2010,08,14,06,14,17.10
2010,08,14,06,15,17.20
2010,08,14,06,16,17.40
2010,08,14,06,17,17.50
2010,08,14,06,18,17.60
2010,08,14,06,19,17.70
2010,08,14,06,20,17.90
2010,08,14,06,21,18.00
2010,08,14,06,22,18.10
2010,08,14,06,23,18.20
2010,08,14,06,24,18.30
2010,08,14,06,25,18.40
2010,08,14,06,26,18.50
2010,08,14,06,27,18.60
2010,08,14,06,28,18.60
2010,08,14,06,29,18.70
2010,08,14,06,30,18.70
2010,08,14,06,31,18.80
2010,08,14,06,32,18.80
2010,08,14,06,33,18.90
2010,08,14,06,34,18.90
2010,08,14,06,35,19.00
2010,08,14,06,36,19.10
2010,08,14,06,37,19.20
2010,08,14,06,38,19.20
2010,08,14,06,39,19.30
2010,08,14,06,40,19.30
2010,08,14,06,41,19.40
2010,08,14,06,42,19.40
2010,08,14,06,43,19.40
2010,08,14,06,44,19.50
2010,08,14,06,45,19.50
2010,08,14,06,46,19.50
2010,08,14,06,47,19.50
2010,08,14,06,48,19.50
2010,08,14,06,49,19.50
2010,08,14,06,50,19.40
2010,08,14,06,51,19.40
2010,08,14,06,52,19.40
2010,08,14,06,53,19.40
2010,08,14,06,54,19.40
2010,08,14,06,55,19.30
2010,08,14,06,56,19.30
2010,08,14,06,57,19.20
2010,08,14,06,58,19.20
2010,08,14,06,59,19.10
2010,08,14,07,00,19.00
2010,08,14,07,01,18.90
2010,08,14,07,02,18.90
2010,08,14,07,03,18.80
2010,08,14,07,04,18.70
2010,08,14,07,05,18.70
2010,08,14,07,06,18.60
2010,08,14,07,07,18.50
2010,08,14,07,08,18.50
2010,08,14,07,09,18.40
2010,08,14,07,10,18.40
2010,08,14,07,11,18.30
2010,08,14,07,12,18.30
2010,08,14,07,13,18.30
2010,08,14,07,14,18.30
2010,08,14,07,15,18.20
2010,08,14,07,16,18.20
2010,08,14,07,17,18.20
2010,08,14,07,18,18.20
2010,08,14,07,19,18.20
2010,08,14,07,20,18.20
2010,08,14,07,21,18.20
2010,08,14,07,22,18.20
2010,08,14,07,23,18.20
2010,08,14,07,24,18.20
2010,08,14,07,25,18.20
2010,08,14,07,26,18.30
2010,08,14,07,27,18.40
2010,08,14,07,28,18.60
2010,08,14,07,29,18.80
2010,08,14,07,30,18.90
2010,08,14,07,31,19.10
2010,08,14,07,32,19.20
2010,08,14,07,33,19.40
2010,08,14,07,34,19.60
2010,08,14,07,35,19.70
2010,08,14,07,36,19.90
2010,08,14,07,37,20.10
2010,08,14,07,38,20.20
2010,08,14,07,39,20.40
2010,08,14,07,40,20.60
2010,08,14,07,41,20.80
2010,08,14,07,42,21.00
2010,08,14,07,43,21.10
2010,08,14,07,44,21.30
2010,08,14,07,45,21.50
2010,08,14,07,46,21.70
2010,08,14,07,47,21.90
2010,08,14,07,48,22.10
2010,08,14,07,49,22.30
2010,08,14,07,50,22.40
2010,08,14,07,51,22.50
2010,08,14,07,52,22.70
2010,08,14,07,53,22.80
2010,08,14,07,54,22.90
2010,08,14,07,55,23.10
2010,08,14,07,56,23.20
2010,08,14,07,57,23.30
2010,08,14,07,58,23.40
2010,08,14,07,59,23.40
2010,08,14,08,00,23.50
2010,08,14,08,01,23.60
2010,08,14,08,02,23.70
2010,08,14,08,03,23.70
2010,08,14,08,04,23.80
2010,08,14,08,05,23.80
2010,08,14,08,06,23.90
2010,08,14,08,07,24.00
2010,08,14,08,08,24.00
2010,08,14,08,09,24.10
2010,08,14,08,10,24.20
2010,08,14,08,11,24.20
2010,08,14,08,12,24.20
2010,08,14,08,13,24.30
2010,08,14,08,14,24.30
2010,08,14,08,15,24.30
2010,08,14,08,16,24.30
2010,08,14,08,17,24.30
2010,08,14,08,18,24.40
2010,08,14,08,19,24.40
2010,08,14,08,20,24.40
2010,08,14,08,21,24.50
2010,08,14,08,22,24.50
2010,08,14,08,23,24.50
2010,08,14,08,24,24.60
2010,08,14,08,25,24.60
2010,08,14,08,26,24.60
2010,08,14,08,27,24.60
2010,08,14,08,28,24.60
2010,08,14,08,29,24.60
2010,08,14,08,30,24.70
2010,08,14,08,31,24.70
2010,08,14,08,32,24.70
2010,08,14,08,33,24.70
2010,08,14,08,34,24.80
2010,08,14,08,35,24.80
2010,08,14,08,36,24.80
2010,08,14,08,37,24.80
2010,08,14,08,38,24.90
2010,08,14,08,39,24.90
2010,08,14,08,40,25.00
2010,08,14,08,41,25.10
2010,08,14,08,42,25.10
2010,08,14,08,43,25.20
2010,08,14,08,44,25.30
2010,08,14,08,45,25.30
2010,08,14,08,46,25.40
2010,08,14,08,47,25.50
2010,08,14,08,48,25.50
2010,08,14,08,49,25.60
2010,08,14,08,50,25.70
2010,08,14,08,51,25.70
2010,08,14,08,52,25.80
2010,08,14,08,53,25.80
2010,08,14,08,54,25.80
2010,08,14,08,55,25.90
2010,08,14,08,56,25.90
2010,08,14,08,57,25.90
2010,08,14,08,58,25.90
2010,08,14,08,59,26.00
2010,08,14,09,00,26.10
2010,08,14,09,01,26.10
2010,08,14,09,02,26.20
2010,08,14,09,03,26.20
2010,08,14,09,04,26.30
2010,08,14,09,05,26.30
2010,08,14,09,06,26.40
2010,08,14,09,07,26.40
2010,08,14,09,08,26.40
2010,08,14,09,09,26.50
2010,08,14,09,10,26.50
2010,08,14,09,11,26.60
2010,08,14,09,12,26.60
2010,08,14,09,13,26.60
2010,08,14,09,14,26.70
2010,08,14,09,15,26.70
2010,08,14,09,16,26.70
2010,08,14,09,17,26.70
2010,08,14,09,18,26.80
2010,08,14,09,19,26.80
2010,08,14,09,20,26.80
2010,08,14,09,21,26.80
2010,08,14,09,22,26.80
2010,08,14,09,23,26.80
2010,08,14,09,24,26.90
2010,08,14,09,25,26.90
2010,08,14,09,26,26.90
2010,08,14,09,27,27.00
2010,08,14,09,28,27.00
2010,08,14,09,29,27.10
2010,08,14,09,30,27.10
2010,08,14,09,31,27.10
2010,08,14,09,32,27.20
2010,08,14,09,33,27.20
2010,08,14,09,34,27.20
2010,08,14,09,35,27.20
2010,08,14,09,36,27.30
2010,08,14,09,37,27.30
2010,08,14,09,38,27.30
2010,08,14,09,39,27.30
2010,08,14,09,40,27.30
2010,08,14,09,41,27.30
2010,08,14,09,42,27.30
2010,08,14,09,43,27.30
2010,08,14,09,44,27.30
2010,08,14,09,45,27.40
2010,08,14,09,46,27.40
2010,08,14,09,47,27.40
2010,08,14,09,48,27.40
2010,08,14,09,49,27.40
2010,08,14,09,50,27.40
2010,08,14,09,51,27.50
2010,08,14,09,52,27.50
2010,08,14,09,53,27.60
2010,08,14,09,54,27.60
2010,08,14,09,55,27.60
2010,08,14,09,56,27.60
2010,08,14,09,57,27.70
2010,08,14,09,58,27.70
2010,08,14,09,59,27.80
2010,08,14,10,00,27.80
2010,08,14,10,01,27.80
2010,08,14,10,02,27.90
2010,08,14,10,03,27.90
2010,08,14,10,04,27.90
2010,08,14,10,05,27.90
2010,08,14,10,06,27.80
2010,08,14,10,07,27.80
2010,08,14,10,08,27.80
2010,08,14,10,09,27.80
2010,08,14,10,10,27.90
2010,08,14,10,11,27.90
2010,08,14,10,12,28.00
2010,08,14,10,13,28.00
2010,08,14,10,14,28.10
2010,08,14,10,15,28.10
2010,08,14,10,16,28.10
2010,08,14,10,17,28.10
2010,08,14,10,18,28.00
2010,08,14,10,19,28.10
2010,08,14,10,20,28.10
2010,08,14,10,21,28.10
2010,08,14,10,22,28.10
2010,08,14,10,23,28.10
2010,08,14,10,24,28.10
2010,08,14,10,25,28.10
2010,08,14,10,26,28.20
2010,08,14,10,27,28.10
2010,08,14,10,28,28.10
2010,08,14,10,29,28.10
2010,08,14,10,30,28.10
2010,08,14,10,31,28.10
2010,08,14,10,32,28.10
2010,08,14,10,33,28.20
2010,08,14,10,34,28.20
2010,08,14,10,35,28.30
2010,08,14,10,36,28.30
2010,08,14,10,37,28.40
2010,08,14,10,38,28.40
2010,08,14,10,39,28.40
2010,08,14,10,40,28.40
2010,08,14,10,41,28.50
2010,08,14,10,42,28.50
2010,08,14,10,43,28.60
2010,08,14,10,44,28.60
2010,08,14,10,45,28.50
2010,08,14,10,46,28.50
2010,08,14,10,47,28.40
2010,08,14,10,48,28.40
2010,08,14,10,49,28.40
2010,08,14,10,50,28.50
2010,08,14,10,51,28.50
2010,08,14,10,52,28.50
2010,08,14,10,53,28.60
2010,08,14,10,54,28.60
2010,08,14,10,55,28.60
2010,08,14,10,56,28.70
2010,08,14,10,57,28.70
2010,08,14,10,58,28.70
2010,08,14,10,59,28.70
2010,08,14,11,00,28.80
2010,08,14,11,01,28.90
2010,08,14,11,02,28.90
2010,08,14,11,03,29.00
2010,08,14,11,04,29.00
2010,08,14,11,05,29.10
2010,08,14,11,06,29.10
2010,08,14,11,07,29.20
2010,08,14,11,08,29.20
2010,08,14,11,09,29.20
2010,08,14,11,10,29.10
2010,08,14,11,11,29.00
2010,08,14,11,12,28.90
2010,08,14,11,13,28.90
2010,08,14,11,14,28.80
2010,08,14,11,15,28.90
2010,08,14,11,16,28.90
2010,08,14,11,17,29.00
2010,08,14,11,18,29.00
2010,08,14,11,19,29.10
2010,08,14,11,20,29.20
2010,08,14,11,21,29.30
2010,08,14,11,22,29.40
2010,08,14,11,23,29.40
2010,08,14,11,24,29.40
2010,08,14,11,25,29.40
2010,08,14,11,26,29.40
2010,08,14,11,27,29.40
2010,08,14,11,28,29.30
2010,08,14,11,29,29.30
2010,08,14,11,30,29.30
2010,08,14,11,31,29.30
2010,08,14,11,32,29.20
2010,08,14,11,33,29.20
2010,08,14,11,34,29.20
2010,08,14,11,35,29.30
2010,08,14,11,36,29.40
2010,08,14,11,37,29.40
2010,08,14,11,38,29.40
2010,08,14,11,39,29.40
2010,08,14,11,40,29.50
2010,08,14,11,41,29.50
2010,08,14,11,42,29.50
2010,08,14,11,43,29.60
2010,08,14,11,44,29.70
2010,08,14,11,45,29.60
2010,08,14,11,46,29.60
2010,08,14,11,47,29.60
2010,08,14,11,48,29.60
2010,08,14,11,49,29.60
2010,08,14,11,50,29.70
2010,08,14,11,51,29.80
2010,08,14,11,52,29.80
2010,08,14,11,53,29.70
2010,08,14,11,54,29.70
2010,08,14,11,55,29.70
2010,08,14,11,56,29.70
2010,08,14,11,57,29.70
2010,08,14,11,58,29.70
2010,08,14,11,59,29.70
2010,08,14,12,00,29.70
2010,08,14,12,01,29.70
2010,08,14,12,02,29.70
2010,08,14,12,03,29.80
2010,08,14,12,04,29.80
2010,08,14,12,05,29.80
2010,08,14,12,06,29.80
2010,08,14,12,07,29.80
2010,08,14,12,08,29.90
2010,08,14,12,09,30.00
2010,08,14,12,10,30.00
2010,08,14,12,11,30.10
2010,08,14,12,12,30.10
2010,08,14,12,13,30.20
2010,08,14,12,14,30.30
2010,08,14,12,15,30.30
2010,08,14,12,16,30.30
2010,08,14,12,17,30.40
2010,08,14,12,18,30.50
2010,08,14,12,19,30.50
2010,08,14,12,20,30.50
2010,08,14,12,21,30.60
2010,08,14,12,22,30.60
2010,08,14,12,23,30.60
2010,08,14,12,24,30.60
2010,08,14,12,25,30.60
2010,08,14,12,26,30.60
2010,08,14,12,27,30.60
2010,08,14,12,28,30.60
2010,08,14,12,29,30.60
2010,08,14,12,30,30.70
2010,08,14,12,31,30.70
2010,08,14,12,32,30.70
2010,08,14,12,33,30.90
2010,08,14,12,34,31.00
2010,08,14,12,35,31.10
2010,08,14,12,36,31.20
2010,08,14,12,37,31.30
2010,08,14,12,38,31.30
2010,08,14,12,39,31.30
2010,08,14,12,40,31.40
2010,08,14,12,41,31.40
2010,08,14,12,42,31.40
2010,08,14,12,43,31.40
2010,08,14,12,44,31.40
2010,08,14,12,45,31.40
2010,08,14,12,46,31.50
2010,08,14,12,47,31.50
2010,08,14,12,48,31.40
2010,08,14,12,49,31.40
2010,08,14,12,50,31.40
2010,08,14,12,51,31.40
2010,08,14,12,52,31.40
2010,08,14,12,53,31.40
2010,08,14,12,54,31.30
2010,08,14,12,55,31.30
2010,08,14,12,56,31.30
2010,08,14,12,57,31.30
2010,08,14,12,58,31.30
2010,08,14,12,59,31.40
2010,08,14,13,00,31.50
2010,08,14,13,01,31.50
2010,08,14,13,02,31.60
2010,08,14,13,03,31.60
2010,08,14,13,04,31.60
2010,08,14,13,05,31.70
2010,08,14,13,06,31.70
2010,08,14,13,07,31.70
2010,08,14,13,08,31.70
2010,08,14,13,09,31.70
2010,08,14,13,10,31.60
2010,08,14,13,11,31.60
2010,08,14,13,12,31.60
2010,08,14,13,13,31.60
2010,08,14,13,14,31.60
2010,08,14,13,15,31.60
2010,08,14,13,16,31.60
2010,08,14,13,17,31.70
2010,08,14,13,18,31.80
2010,08,14,13,19,31.80
2010,08,14,13,20,31.90
2010,08,14,13,21,32.00
2010,08,14,13,22,32.00
2010,08,14,13,23,32.10
2010,08,14,13,24,32.10
2010,08,14,13,25,32.10
2010,08,14,13,26,32.10
2010,08,14,13,27,32.10
2010,08,14,13,28,32.20
2010,08,14,13,29,32.20
2010,08,14,13,30,32.20
2010,08,14,13,31,32.20
2010,08,14,13,32,32.20
2010,08,14,13,33,32.20
2010,08,14,13,34,32.20
2010,08,14,13,35,32.20
2010,08,14,13,36,32.20
2010,08,14,13,37,32.20
2010,08,14,13,38,32.20
2010,08,14,13,39,32.20
2010,08,14,13,40,32.20
2010,08,14,13,41,32.10
2010,08,14,13,42,32.10
2010,08,14,13,43,32.00
2010,08,14,13,44,31.80
2010,08,14,13,45,31.80
2010,08,14,13,46,31.90
2010,08,14,13,47,31.90
2010,08,14,13,48,31.90
2010,08,14,13,49,31.90
2010,08,14,13,50,32.00
2010,08,14,13,51,32.00
2010,08,14,13,52,32.10
2010,08,14,13,53,32.20
2010,08,14,13,54,32.30
2010,08,14,13,55,32.30
2010,08,14,13,56,32.40
2010,08,14,13,57,32.40
2010,08,14,13,58,32.40
2010,08,14,13,59,32.40
2010,08,14,14,00,32.40
2010,08,14,14,01,32.30
2010,08,14,14,02,32.30
2010,08,14,14,03,32.30
2010,08,14,14,04,32.20
2010,08,14,14,05,32.10
2010,08,14,14,06,32.00
2010,08,14,14,07,31.90
2010,08,14,14,08,31.90
2010,08,14,14,09,31.90
2010,08,14,14,10,31.90
2010,08,14,14,11,31.90
2010,08,14,14,12,31.90
2010,08,14,14,13,32.00
2010,08,14,14,14,32.00
2010,08,14,14,15,32.10
2010,08,14,14,16,32.10
2010,08,14,14,17,32.20
2010,08,14,14,18,32.30
2010,08,14,14,19,32.40
2010,08,14,14,20,32.40
2010,08,14,14,21,32.40
2010,08,14,14,22,32.40
2010,08,14,14,23,32.50
2010,08,14,14,24,32.60
2010,08,14,14,25,32.60
2010,08,14,14,26,32.60
2010,08,14,14,27,32.70
2010,08,14,14,28,32.70
2010,08,14,14,29,32.80
2010,08,14,14,30,32.90
2010,08,14,14,31,32.90
2010,08,14,14,32,33.00
2010,08,14,14,33,33.00
2010,08,14,14,34,33.10
2010,08,14,14,35,33.20
2010,08,14,14,36,33.30
2010,08,14,14,37,33.30
2010,08,14,14,38,33.40
2010,08,14,14,39,33.30
2010,08,14,14,40,33.20
2010,08,14,14,41,33.10
2010,08,14,14,42,33.00
2010,08,14,14,43,32.90
2010,08,14,14,44,32.90
2010,08,14,14,45,32.90
2010,08,14,14,46,32.80
2010,08,14,14,47,32.80
2010,08,14,14,48,32.90
2010,08,14,14,49,32.90
2010,08,14,14,50,33.00
2010,08,14,14,51,33.10
2010,08,14,14,52,33.20
2010,08,14,14,53,33.20
2010,08,14,14,54,33.20
2010,08,14,14,55,33.20
2010,08,14,14,56,33.20
2010,08,14,14,57,33.20
2010,08,14,14,58,33.20
2010,08,14,14,59,33.30
2010,08,14,15,00,33.30
2010,08,14,15,01,33.30
2010,08,14,15,02,33.30
2010,08,14,15,03,33.30
2010,08,14,15,04,33.20
2010,08,14,15,05,33.20
2010,08,14,15,06,33.10
2010,08,14,15,07,33.10
2010,08,14,15,08,33.10
2010,08,14,15,09,33.10
2010,08,14,15,10,33.10
2010,08,14,15,11,33.10
2010,08,14,15,12,33.10
2010,08,14,15,13,33.10
2010,08,14,15,14,33.10
2010,08,14,15,15,33.10
2010,08,14,15,16,33.10
2010,08,14,15,17,33.20
2010,08,14,15,18,33.10
2010,08,14,15,19,33.10
2010,08,14,15,20,33.10
2010,08,14,15,21,33.10
2010,08,14,15,22,33.10
2010,08,14,15,23,33.00
2010,08,14,15,24,33.00
2010,08,14,15,25,33.00
2010,08,14,15,26,33.10
2010,08,14,15,27,33.20
2010,08,14,15,28,33.20
2010,08,14,15,29,33.20
2010,08,14,15,30,33.20
2010,08,14,15,31,33.20
2010,08,14,15,32,33.20
2010,08,14,15,33,33.10
2010,08,14,15,34,33.00
2010,08,14,15,35,32.90
2010,08,14,15,36,32.80
2010,08,14,15,37,32.80
2010,08,14,15,38,32.80
2010,08,14,15,39,32.80
2010,08,14,15,40,32.80
2010,08,14,15,41,32.80
2010,08,14,15,42,32.80
2010,08,14,15,43,32.80
2010,08,14,15,44,32.80
2010,08,14,15,45,32.80
2010,08,14,15,46,32.80
2010,08,14,15,47,32.90
2010,08,14,15,48,32.90
2010,08,14,15,49,33.00
2010,08,14,15,50,33.10
2010,08,14,15,51,33.20
2010,08,14,15,52,33.20
2010,08,14,15,53,33.30
2010,08,14,15,54,33.30
2010,08,14,15,55,33.30
2010,08,14,15,56,33.40
2010,08,14,15,57,33.40
2010,08,14,15,58,33.30
2010,08,14,15,59,33.30
2010,08,14,16,00,33.30
2010,08,14,16,01,33.20
2010,08,14,16,02,33.20
2010,08,14,16,03,33.10
2010,08,14,16,04,33.10
2010,08,14,16,05,33.10
2010,08,14,16,06,33.00
2010,08,14,16,07,33.00
2010,08,14,16,08,33.00
2010,08,14,16,09,33.00
2010,08,14,16,10,33.10
2010,08,14,16,11,33.10
2010,08,14,16,12,33.10
2010,08,14,16,13,33.10
2010,08,14,16,14,33.10
2010,08,14,16,15,33.20
2010,08,14,16,16,33.10
2010,08,14,16,17,33.00
2010,08,14,16,18,32.90
2010,08,14,16,19,32.80
2010,08,14,16,20,32.80
2010,08,14,16,21,32.80
2010,08,14,16,22,32.80
2010,08,14,16,23,32.80
2010,08,14,16,24,32.80
2010,08,14,16,25,32.80
2010,08,14,16,26,32.80
2010,08,14,16,27,32.70
2010,08,14,16,28,32.70
2010,08,14,16,29,32.70
2010,08,14,16,30,32.70
2010,08,14,16,31,32.70
2010,08,14,16,32,32.70
2010,08,14,16,33,32.70
2010,08,14,16,34,32.70
2010,08,14,16,35,32.80
2010,08,14,16,36,32.90
2010,08,14,16,37,32.90
2010,08,14,16,38,32.90
2010,08,14,16,39,33.00
2010,08,14,16,40,33.00
2010,08,14,16,41,33.10
2010,08,14,16,42,33.10
2010,08,14,16,43,33.10
2010,08,14,16,44,33.10
2010,08,14,16,45,33.20
2010,08,14,16,46,33.20
2010,08,14,16,47,33.20
2010,08,14,16,48,33.20
2010,08,14,16,49,33.10
2010,08,14,16,50,33.10
2010,08,14,16,51,33.10
2010,08,14,16,52,33.10
2010,08,14,16,53,33.10
2010,08,14,16,54,33.00
2010,08,14,16,55,33.00
2010,08,14,16,56,32.90
2010,08,14,16,57,32.90
2010,08,14,16,58,32.90
2010,08,14,16,59,32.80
2010,08,14,17,00,32.80
2010,08,14,17,01,32.80
2010,08,14,17,02,32.80
2010,08,14,17,03,32.80
2010,08,14,17,04,32.90
2010,08,14,17,05,32.80
2010,08,14,17,06,32.70
2010,08,14,17,07,32.60
2010,08,14,17,08,32.60
2010,08,14,17,09,32.60
2010,08,14,17,10,32.50
2010,08,14,17,11,32.50
2010,08,14,17,12,32.50
2010,08,14,17,13,32.50
2010,08,14,17,14,32.50
2010,08,14,17,15,32.60
2010,08,14,17,16,32.60
2010,08,14,17,17,32.60
2010,08,14,17,18,32.60
2010,08,14,17,19,32.60